Location: Fredericton
(45.9636°N, 66.6431°W)
Time: 00:38:39
(UTC-03:00)

ISS - Visible Passes

Search period start: 27 May 2018 00:00
Search period end: 06 June 2018 00:00
Orbit: 402 x 407 km, 51.6° (Epoch: 27 May)

Date Brightness Start Highest point End Pass type
(mag) Time Alt. Az. Time Alt. Az. Time Alt. Az.
27 May -1.9 01:35:26 10° WNW 01:36:54 24° WNW 01:36:54 24° WNW visible
27 May -1.8 23:06:38 10° WNW 23:09:33 29° N 23:12:28 10° ENE visible
28 May -3.1 00:43:14 10° WNW 00:46:13 53° N 00:46:13 53° N visible
28 May -1.8 22:14:14 10° WNW 22:17:10 29° N 22:20:06 10° ENE visible
28 May -2.6 23:51:03 10° NW 23:54:10 40° NNE 23:55:35 25° ENE visible
29 May -1.3 01:27:33 10° WNW 01:28:12 15° WNW 01:28:12 15° WNW visible
29 May -2.2 22:58:48 10° NW 23:01:49 32° N 23:04:49 10° ENE visible
30 May -2.9 00:35:16 10° WNW 00:37:36 44° WNW 00:37:36 44° WNW visible
30 May -1.9 22:06:29 10° WNW 22:09:25 29° N 22:12:20 10° ENE visible
30 May -3.5 23:43:02 10° WNW 23:46:17 63° NNE 23:47:02 46° E visible
31 May -2.8 22:50:48 10° WNW 22:53:58 44° NNE 22:56:29 15° E visible
01 Jun -2.2 00:27:22 10° WNW 00:29:06 26° W 00:29:06 26° W visible
01 Jun -2.4 21:58:32 10° NW 22:01:35 34° NNE 22:04:38 10° E visible
01 Jun -3.9 23:35:00 10° WNW 23:38:15 68° SSW 23:38:35 62° S visible
02 Jun -3.7 22:42:42 10° WNW 22:45:59 74° NNE 22:48:05 20° ESE visible
03 Jun -1.4 00:19:46 10° W 00:20:43 15° WSW 00:20:43 15° WSW visible
03 Jun -3.1 21:50:26 10° WNW 21:53:38 49° NNE 21:56:50 10° E visible
03 Jun -2.9 23:27:04 10° WNW 23:30:02 32° SW 23:30:14 32° SSW visible
04 Jun -3.6 22:34:37 10° WNW 22:37:50 56° SSW 22:39:47 21° SE visible
05 Jun -1.7 23:19:36 10° W 23:21:38 16° SW 23:22:00 15° SW visible
